Wetterdaten: aktuell Mittwoch, 21.10.2020 21:00
Datum Zeit Temp. I. Temp. A. Feuchte A. Luftdruck Regen Wind Richtung Richtung Sonnenschein Taupunkt Windchill Windben
21.10.2020 21:00 21,0 C 11,8 C 58 % 1009,3 hPa 0,0 l/m 10,6 km/h (2 Bft) SO 135 0 min 3,8 C 9,3 C 12,9 km/h (3 Bft)
21.10.2020 20:50 21,0 C 11,8 C 58 % 1009,2 hPa 0,0 l/m 10,5 km/h (2 Bft) O-SO 112 0 min 3,8 C 9,3 C 12,9 km/h (3 Bft)
21.10.2020 20:40 21,0 C 11,7 C 58 % 1009,2 hPa 0,0 l/m 11,1 km/h (2 Bft) W-SW 247 0 min 3,7 C 8,9 C 17,5 km/h (3 Bft)
21.10.2020 20:30 20,9 C 11,7 C 58 % 1009,0 hPa 0,0 l/m 10,1 km/h (2 Bft) S 180 0 min 3,7 C 9,4 C 15,9 km/h (3 Bft)
21.10.2020 20:20 20,9 C 11,7 C 58 % 1009,0 hPa 0,0 l/m 11,6 km/h (2 Bft) SW 225 0 min 3,7 C 8,7 C 5,6 km/h (1 Bft)
21.10.2020 20:10 20,8 C 11,7 C 58 % 1008,8 hPa 0,0 l/m 10,8 km/h (2 Bft) S 180 0 min 3,7 C 9,1 C 16,3 km/h (3 Bft)
21.10.2020 20:00 20,8 C 11,7 C 58 % 1008,8 hPa 0,0 l/m 14,2 km/h (3 Bft) SO 135 0 min 3,7 C 7,5 C 21,2 km/h (4 Bft)
21.10.2020 19:50 20,8 C 11,7 C 58 % 1008,9 hPa 0,0 l/m 13,5 km/h (3 Bft) SO 135 0 min 3,7 C 7,8 C 37,5 km/h (5 Bft)
21.10.2020 19:40 20,8 C 11,8 C 58 % 1008,9 hPa 0,0 l/m 13,4 km/h (3 Bft) S 180 0 min 3,8 C 8,0 C 23,0 km/h (4 Bft)
21.10.2020 19:30 20,8 C 11,7 C 58 % 1008,6 hPa 0,0 l/m 13,0 km/h (3 Bft) S 180 0 min 3,7 C 8,0 C 14,0 km/h (3 Bft)
21.10.2020 19:20 20,8 C 11,7 C 58 % 1008,6 hPa 0,0 l/m 13,4 km/h (3 Bft) W 270 0 min 3,7 C 7,8 C 12,6 km/h (3 Bft)
21.10.2020 19:10 20,8 C 11,7 C 58 % 1008,3 hPa 0,0 l/m 12,2 km/h (2 Bft) S 180 0 min 3,7 C 8,4 C 15,4 km/h (3 Bft)
21.10.2020 19:00 20,7 C 11,6 C 58 % 1008,3 hPa 0,0 l/m 13,5 km/h (3 Bft) O-SO 112 0 min 3,6 C 7,7 C 17,7 km/h (3 Bft)
21.10.2020 18:50 20,7 C 11,5 C 58 % 1008,2 hPa 0,0 l/m 12,7 km/h (3 Bft) O 90 0 min 3,5 C 7,9 C 14,8 km/h (3 Bft)
21.10.2020 18:40 20,7 C 11,3 C 59 % 1008,2 hPa 0,0 l/m 11,1 km/h (2 Bft) SO 135 0 min 3,6 C 8,5 C 18,3 km/h (3 Bft)
21.10.2020 18:30 20,6 C 11,3 C 59 % 1008,2 hPa 0,0 l/m 12,4 km/h (3 Bft) SO 135 0 min 3,6 C 7,8 C 34,1 km/h (5 Bft)
21.10.2020 18:20 20,6 C 11,3 C 59 % 1008,2 hPa 0,0 l/m 12,2 km/h (2 Bft) SO 135 0 min 3,6 C 7,9 C 13,0 km/h (3 Bft)
21.10.2020 18:10 20,6 C 11,3 C 59 % 1008,1 hPa 0,0 l/m 12,2 km/h (2 Bft) W 270 0 min 3,6 C 7,9 C 17,5 km/h (3 Bft)
21.10.2020 18:00 20,6 C 11,4 C 59 % 1008,1 hPa 0,0 l/m 12,1 km/h (2 Bft) O 90 0 min 3,7 C 8,1 C 17,4 km/h (3 Bft)
21.10.2020 17:50 20,6 C 11,5 C 59 % 1008,2 hPa 0,0 l/m 13,7 km/h (3 Bft) SO 135 0 min 3,8 C 7,5 C 13,5 km/h (3 Bft)
21.10.2020 17:40 20,6 C 11,6 C 59 % 1008,2 hPa 0,0 l/m 12,2 km/h (2 Bft) SO 135 0 min 3,9 C 8,3 C 19,8 km/h (3 Bft)
21.10.2020 17:30 20,7 C 11,7 C 59 % 1008,2 hPa 0,0 l/m 11,1 km/h (2 Bft) SO 135 0 min 4,0 C 8,9 C 12,9 km/h (3 Bft)
21.10.2020 17:20 20,7 C 11,9 C 58 % 1008,2 hPa 0,0 l/m 12,1 km/h (2 Bft) S 180 0 min 3,9 C 8,7 C 20,3 km/h (4 Bft)
21.10.2020 17:10 20,7 C 12,1 C 58 % 1008,6 hPa 0,0 l/m 11,4 km/h (2 Bft) SO 135 0 min 4,1 C 9,2 C 12,9 km/h (3 Bft)
21.10.2020 17:00 20,8 C 12,2 C 57 % 1008,6 hPa 0,0 l/m 10,9 km/h (2 Bft) SO 135 0 min 3,9 C 9,6 C 15,3 km/h (3 Bft)
21.10.2020 16:50 20,8 C 12,3 C 57 % 1008,8 hPa 0,0 l/m 11,1 km/h (2 Bft) SO 135 0 min 4,0 C 9,6 C 13,2 km/h (3 Bft)
21.10.2020 16:40 20,8 C 12,3 C 57 % 1008,8 hPa 0,0 l/m 10,1 km/h (2 Bft) SO 135 0 min 4,0 C 10,1 C 13,8 km/h (3 Bft)
21.10.2020 16:30 20,9 C 12,4 C 57 % 1008,9 hPa 0,0 l/m 8,4 km/h (2 Bft) S-SO 157 0 min 4,1 C 11,1 C 21,4 km/h (4 Bft)
21.10.2020 16:20 20,9 C 12,5 C 57 % 1008,9 hPa 0,0 l/m 6,9 km/h (2 Bft) SO 135 0 min 4,2 C 12,2 C 12,1 km/h (2 Bft)
21.10.2020 16:10 21,0 C 12,6 C 57 % 1009,2 hPa 0,0 l/m 6,6 km/h (2 Bft) S 180 0 min 4,3 C 12,5 C 8,9 km/h (2 Bft)
21.10.2020 16:00 21,0 C 12,7 C 56 % 1009,2 hPa 0,0 l/m 6,6 km/h (2 Bft) SO 135 0 min 4,2 C 12,6 C 10,9 km/h (2 Bft)
21.10.2020 15:50 20,9 C 12,8 C 56 % 1009,2 hPa 0,0 l/m 6,9 km/h (2 Bft) S 180 0 min 4,2 C 12,5 C 5,6 km/h (1 Bft)
21.10.2020 15:40 20,9 C 12,7 C 56 % 1009,2 hPa 0,0 l/m 6,4 km/h (2 Bft) NW 315 0 min 4,2 C 12,7 C 8,4 km/h (2 Bft)
21.10.2020 15:30 20,9 C 12,6 C 56 % 1009,6 hPa 0,0 l/m 8,2 km/h (2 Bft) S 180 0 min 4,1 C 11,5 C 9,3 km/h (2 Bft)
21.10.2020 15:20 21,0 C 12,6 C 55 % 1009,6 hPa 0,0 l/m 8,7 km/h (2 Bft) SO 135 0 min 3,8 C 11,2 C 12,4 km/h (3 Bft)
21.10.2020 15:10 21,0 C 12,5 C 56 % 1009,6 hPa 0,0 l/m 8,5 km/h (2 Bft) SO 135 0 min 4,0 C 11,2 C 10,6 km/h (2 Bft)
21.10.2020 15:00 21,0 C 12,8 C 55 % 1009,6 hPa 0,0 l/m 8,5 km/h (2 Bft) NW 315 0 min 4,0 C 11,5 C 8,9 km/h (2 Bft)
21.10.2020 14:50 21,0 C 13,0 C 54 % 1009,2 hPa 0,0 l/m 9,5 km/h (2 Bft) SO 135 0 min 3,9 C 11,2 C 7,6 km/h (2 Bft)
21.10.2020 14:40 20,9 C 12,8 C 55 % 1009,2 hPa 0,0 l/m 10,5 km/h (2 Bft) O-SO 112 0 min 4,0 C 10,4 C 9,3 km/h (2 Bft)
21.10.2020 14:30 20,9 C 12,8 C 54 % 1009,3 hPa 0,0 l/m 11,3 km/h (2 Bft) SO 135 0 min 3,7 C 10,1 C 21,4 km/h (4 Bft)
21.10.2020 14:20 20,9 C 12,8 C 54 % 1009,3 hPa 0,0 l/m 11,4 km/h (2 Bft) W-SW 247 0 min 3,7 C 10,0 C 33,3 km/h (5 Bft)
21.10.2020 14:10 20,9 C 12,8 C 54 % 1009,2 hPa 0,0 l/m 10,5 km/h (2 Bft) O-SO 112 0 min 3,7 C 10,4 C 10,0 km/h (2 Bft)
21.10.2020 14:00 20,9 C 12,9 C 54 % 1009,2 hPa 0,0 l/m 11,1 km/h (2 Bft) S-SO 157 0 min 3,8 C 10,3 C 13,0 km/h (3 Bft)
21.10.2020 13:50 20,8 C 12,6 C 54 % 1009,2 hPa 0,0 l/m 11,3 km/h (2 Bft) NW 315 0 min 3,5 C 9,8 C 17,5 km/h (3 Bft)
21.10.2020 13:40 20,8 C 12,5 C 54 % 1009,2 hPa 0,0 l/m 11,1 km/h (2 Bft) SO 135 0 min 3,5 C 9,8 C 17,1 km/h (3 Bft)
21.10.2020 13:30 20,8 C 12,4 C 55 % 1009,1 hPa 0,0 l/m 10,1 km/h (2 Bft) SO 135 0 min 3,6 C 10,2 C 13,0 km/h (3 Bft)
21.10.2020 13:19 20,9 C 12,4 C 55 % 1009,1 hPa 0,0 l/m 10,0 km/h (2 Bft) S 180 0 min 3,6 C 10,2 C 23,8 km/h (4 Bft)
21.10.2020 13:10 20,9 C 12,5 C 55 % 1009,0 hPa 0,0 l/m 10,5 km/h (2 Bft) S-SO 157 0 min 3,7 C 10,1 C 15,8 km/h (3 Bft)
21.10.2020 13:00 20,9 C 12,2 C 56 % 1009,0 hPa 0,0 l/m 10,1 km/h (2 Bft) O-SO 112 0 min 3,7 C 10,0 C 11,1 km/h (2 Bft)
21.10.2020 12:50 20,8 C 12,3 C 55 % 1009,2 hPa 0,0 l/m 9,8 km/h (2 Bft) SO 135 0 min 3,5 C 10,2 C 14,3 km/h (3 Bft)
21.10.2020 12:40 20,8 C 12,0 C 56 % 1009,2 hPa 0,0 l/m 10,5 km/h (2 Bft) SO 135 0 min 3,5 C 9,5 C 17,4 km/h (3 Bft)
21.10.2020 12:30 20,8 C 11,7 C 56 % 1009,4 hPa 0,0 l/m 10,1 km/h (2 Bft) S-SO 157 0 min 3,2 C 9,4 C 13,5 km/h (3 Bft)
21.10.2020 12:20 20,8 C 11,5 C 56 % 1009,4 hPa 0,0 l/m 9,8 km/h (2 Bft) SO 135 0 min 3,0 C 9,4 C 10,9 km/h (2 Bft)
21.10.2020 12:10 20,8 C 11,5 C 56 % 1009,7 hPa 0,0 l/m 9,8 km/h (2 Bft) SO 135 0 min 3,0 C 9,4 C 10,9 km/h (2 Bft)
21.10.2020 12:00 20,8 C 11,2 C 57 % 1009,7 hPa 0,0 l/m 8,9 km/h (2 Bft) S 180 0 min 3,0 C 9,6 C 14,8 km/h (3 Bft)
21.10.2020 11:50 20,8 C 11,2 C 56 % 1009,6 hPa 0,0 l/m 8,9 km/h (2 Bft) O-SO 112 0 min 2,8 C 9,6 C 6,6 km/h (2 Bft)
21.10.2020 11:40 20,8 C 11,2 C 56 % 1009,6 hPa 0,0 l/m 9,5 km/h (2 Bft) S-SO 157 0 min 2,8 C 9,2 C 10,1 km/h (2 Bft)
21.10.2020 11:30 20,8 C 11,1 C 56 % 1009,6 hPa 0,0 l/m 9,7 km/h (2 Bft) O-SO 112 0 min 2,7 C 9,0 C 14,3 km/h (3 Bft)
21.10.2020 11:20 20,8 C 11,0 C 56 % 1009,6 hPa 0,0 l/m 13,2 km/h (3 Bft) S-SW 202 0 min 2,6 C 7,1 C 12,6 km/h (3 Bft)
21.10.2020 11:10 20,9 C 11,1 C 56 % 1009,9 hPa 0,0 l/m 9,8 km/h (2 Bft) O-NO 67 0 min 2,7 C 8,9 C 15,1 km/h (3 Bft)
21.10.2020 11:00 20,9 C 11,3 C 55 % 1009,9 hPa 0,0 l/m 8,5 km/h (2 Bft) S 180 0 min 2,6 C 9,9 C 14,3 km/h (3 Bft)
21.10.2020 10:50 20,9 C 11,2 C 55 % 1010,4 hPa 0,0 l/m 8,5 km/h (2 Bft) S-SO 157 0 min 2,5 C 9,8 C 10,6 km/h (2 Bft)
21.10.2020 10:40 20,8 C 11,3 C 55 % 1010,4 hPa 0,0 l/m 8,2 km/h (2 Bft) O 90 0 min 2,6 C 10,1 C 6,1 km/h (2 Bft)
21.10.2020 10:30 20,8 C 11,4 C 55 % 1010,4 hPa 0,0 l/m 6,1 km/h (2 Bft) S-SO 157 0 min 2,7 C 11,4 C 3,4 km/h (1 Bft)
21.10.2020 10:20 20,8 C 11,4 C 55 % 1010,4 hPa 0,0 l/m 4,8 km/h (1 Bft) S-SO 157 0 min 2,7 C 11,4 C 6,6 km/h (2 Bft)
21.10.2020 10:10 20,8 C 11,5 C 56 % 1010,2 hPa 0,0 l/m 3,1 km/h (1 Bft) W 270 0 min 3,0 C 11,5 C 9,5 km/h (2 Bft)
21.10.2020 10:00 20,8 C 11,3 C 56 % 1010,2 hPa 0,0 l/m 3,4 km/h (1 Bft) S-SO 157 0 min 2,8 C 11,3 C 2,6 km/h (1 Bft)
21.10.2020 09:50 20,8 C 11,0 C 56 % 1010,1 hPa 0,0 l/m 2,9 km/h (1 Bft) S 180 0 min 2,6 C 11,0 C 10,0 km/h (2 Bft)
21.10.2020 09:40 20,7 C 10,9 C 56 % 1010,1 hPa 0,0 l/m 4,5 km/h (1 Bft) W-SW 247 0 min 2,5 C 10,9 C 4,8 km/h (1 Bft)
21.10.2020 09:30 20,7 C 10,8 C 56 % 1009,8 hPa 0,0 l/m 5,3 km/h (1 Bft) SO 135 0 min 2,4 C 10,8 C 9,2 km/h (2 Bft)
21.10.2020 09:20 20,7 C 10,5 C 57 % 1009,8 hPa 0,0 l/m 3,7 km/h (1 Bft) SO 135 0 min 2,3 C 10,5 C 9,3 km/h (2 Bft)
21.10.2020 09:10 20,7 C 10,3 C 57 % 1009,8 hPa 0,0 l/m 3,5 km/h (1 Bft) S 180 0 min 2,2 C 10,3 C 3,7 km/h (1 Bft)
21.10.2020 09:00 20,6 C 10,2 C 57 % 1009,8 hPa 0,0 l/m 6,8 km/h (2 Bft) SO 135 0 min 2,1 C 9,9 C 5,6 km/h (1 Bft)
21.10.2020 08:50 20,6 C 10,1 C 57 % 1009,6 hPa 0,0 l/m 5,6 km/h (1 Bft) S-SO 157 0 min 2,0 C 10,1 C 6,4 km/h (2 Bft)
21.10.2020 08:40 20,6 C 10,1 C 57 % 1009,6 hPa 0,0 l/m 4,7 km/h (1 Bft) SW 225 0 min 2,0 C 10,1 C 3,2 km/h (1 Bft)
21.10.2020 08:30 20,5 C 10,0 C 58 % 1009,8 hPa 0,0 l/m 3,5 km/h (1 Bft) S 180 0 min 2,1 C 10,0 C 9,3 km/h (2 Bft)
21.10.2020 08:20 20,6 C 10,0 C 58 % 1009,8 hPa 0,0 l/m 3,2 km/h (1 Bft) SO 135 0 min 2,1 C 10,0 C 5,5 km/h (1 Bft)
21.10.2020 08:10 20,7 C 10,0 C 57 % 1009,7 hPa 0,0 l/m 2,4 km/h (1 Bft) S-SW 202 0 min 1,9 C 10,0 C 3,9 km/h (1 Bft)
21.10.2020 08:00 20,6 C 10,1 C 57 % 1009,7 hPa 0,0 l/m 3,9 km/h (1 Bft) NO 45 0 min 2,0 C 10,1 C 5,3 km/h (1 Bft)
21.10.2020 07:50 20,6 C 10,1 C 57 % 1009,1 hPa 0,0 l/m 5,0 km/h (1 Bft) S 180 0 min 2,0 C 10,1 C 5,5 km/h (1 Bft)
21.10.2020 07:40 20,6 C 10,1 C 57 % 1009,1 hPa 0,0 l/m 5,5 km/h (1 Bft) S 180 0 min 2,0 C 10,1 C 6,4 km/h (2 Bft)
21.10.2020 07:30 20,5 C 10,1 C 57 % 1009,4 hPa 0,0 l/m 6,1 km/h (2 Bft) S 180 0 min 2,0 C 10,1 C 8,0 km/h (2 Bft)
21.10.2020 07:20 20,5 C 10,1 C 57 % 1009,4 hPa 0,0 l/m 5,8 km/h (2 Bft) N-NW 337 0 min 2,0 C 10,1 C 3,5 km/h (1 Bft)
21.10.2020 07:10 20,5 C 10,1 C 57 % 1009,2 hPa 0,0 l/m 5,5 km/h (1 Bft) S 180 0 min 2,0 C 10,1 C 6,8 km/h (2 Bft)
21.10.2020 07:00 20,5 C 10,0 C 57 % 1009,2 hPa 0,0 l/m 4,2 km/h (1 Bft) S 180 0 min 1,9 C 10,0 C 8,7 km/h (2 Bft)
21.10.2020 06:50 20,5 C 10,0 C 58 % 1009,4 hPa 0,0 l/m 4,5 km/h (1 Bft) W-SW 247 0 min 2,1 C 10,0 C 7,2 km/h (2 Bft)
21.10.2020 06:40 20,5 C 9,9 C 58 % 1009,4 hPa 0,0 l/m 5,0 km/h (1 Bft) S 180 0 min 2,0 C 9,9 C 5,3 km/h (1 Bft)
21.10.2020 06:30 20,5 C 9,9 C 58 % 1009,9 hPa 0,0 l/m 6,4 km/h (2 Bft) N-NO 22 0 min 2,0 C 9,9 C 13,4 km/h (3 Bft)
21.10.2020 06:20 20,5 C 10,0 C 57 % 1009,9 hPa 0,0 l/m 6,8 km/h (2 Bft) S 180 0 min 1,9 C 9,7 C 10,9 km/h (2 Bft)
21.10.2020 06:10 20,5 C 10,0 C 57 % 1010,2 hPa 0,0 l/m 6,8 km/h (2 Bft) S 180 0 min 1,9 C 9,7 C 10,9 km/h (2 Bft)
21.10.2020 06:00 20,5 C 10,0 C 57 % 1010,2 hPa 0,0 l/m 6,6 km/h (2 Bft) S 180 0 min 1,9 C 9,9 C 7,6 km/h (2 Bft)
21.10.2020 05:50 20,6 C 10,1 C 57 % 1010,1 hPa 0,0 l/m 7,6 km/h (2 Bft) SO 135 0 min 2,0 C 9,2 C 14,5 km/h (3 Bft)
21.10.2020 05:40 20,6 C 10,1 C 57 % 1010,1 hPa 0,0 l/m 8,0 km/h (2 Bft) S-SO 157 0 min 2,0 C 9,0 C 6,1 km/h (2 Bft)
21.10.2020 05:30 20,6 C 10,1 C 57 % 1010,5 hPa 0,0 l/m 6,1 km/h (2 Bft) SO 135 0 min 2,0 C 10,1 C 16,7 km/h (3 Bft)
21.10.2020 05:20 20,6 C 10,1 C 57 % 1010,5 hPa 0,0 l/m 5,5 km/h (1 Bft) S 180 0 min 2,0 C 10,1 C 5,3 km/h (1 Bft)
21.10.2020 05:10 20,6 C 10,1 C 57 % 1010,8 hPa 0,0 l/m 6,0 km/h (2 Bft) W-SW 247 0 min 2,0 C 10,1 C 6,8 km/h (2 Bft)
21.10.2020 05:00 20,6 C 10,2 C 56 % 1010,8 hPa 0,0 l/m 7,4 km/h (2 Bft) SW 225 0 min 1,8 C 9,5 C 9,3 km/h (2 Bft)
21.10.2020 04:50 20,7 C 10,3 C 56 % 1010,5 hPa 0,0 l/m 9,7 km/h (2 Bft) S 180 0 min 1,9 C 8,1 C 5,0 km/h (1 Bft)
21.10.2020 04:40 20,7 C 10,3 C 56 % 1010,5 hPa 0,0 l/m 10,1 km/h (2 Bft) S-SW 202 0 min 1,9 C 7,9 C 16,3 km/h (3 Bft)
21.10.2020 04:30 20,7 C 10,5 C 55 % 1010,5 hPa 0,0 l/m 9,7 km/h (2 Bft) S 180 0 min 1,8 C 8,3 C 15,9 km/h (3 Bft)
21.10.2020 04:20 20,7 C 10,6 C 55 % 1010,5 hPa 0,0 l/m 9,8 km/h (2 Bft) S-SO 157 0 min 1,9 C 8,4 C 8,2 km/h (2 Bft)
21.10.2020 04:10 20,8 C 10,6 C 55 % 1010,8 hPa 0,0 l/m 9,7 km/h (2 Bft) S 180 0 min 1,9 C 8,4 C 15,6 km/h (3 Bft)
21.10.2020 04:00 20,8 C 10,7 C 55 % 1010,8 hPa 0,0 l/m 8,5 km/h (2 Bft) SO 135 0 min 2,0 C 9,3 C 19,5 km/h (3 Bft)
21.10.2020 03:50 20,8 C 10,7 C 55 % 1010,9 hPa 0,0 l/m 8,2 km/h (2 Bft) W 270 0 min 2,0 C 9,5 C 11,3 km/h (2 Bft)
21.10.2020 03:40 20,8 C 10,7 C 55 % 1010,9 hPa 0,0 l/m 8,0 km/h (2 Bft) W-SW 247 0 min 2,0 C 9,6 C 11,4 km/h (2 Bft)
21.10.2020 03:30 20,8 C 10,7 C 56 % 1011,2 hPa 0,0 l/m 7,7 km/h (2 Bft) O-SO 112 0 min 2,3 C 9,8 C 8,2 km/h (2 Bft)
21.10.2020 03:20 20,8 C 10,7 C 56 % 1011,2 hPa 0,0 l/m 8,7 km/h (2 Bft) SO 135 0 min 2,3 C 9,1 C 10,9 km/h (2 Bft)
21.10.2020 03:10 20,8 C 10,7 C 56 % 1011,1 hPa 0,0 l/m 8,7 km/h (2 Bft) SO 135 0 min 2,3 C 9,1 C 10,9 km/h (2 Bft)
21.10.2020 03:00 20,8 C 10,7 C 56 % 1011,1 hPa 0,0 l/m 8,7 km/h (2 Bft) SO 135 0 min 2,3 C 9,1 C 11,4 km/h (2 Bft)
21.10.2020 02:50 20,9 C 10,7 C 56 % 1011,9 hPa 0,0 l/m 8,9 km/h (2 Bft) S-SO 157 0 min 2,3 C 9,0 C 17,4 km/h (3 Bft)
21.10.2020 02:40 20,9 C 10,7 C 56 % 1011,9 hPa 0,0 l/m 8,4 km/h (2 Bft) S-SO 157 0 min 2,3 C 9,3 C 29,9 km/h (5 Bft)
21.10.2020 02:30 20,9 C 10,8 C 56 % 1011,4 hPa 0,0 l/m 7,4 km/h (2 Bft) S 180 0 min 2,4 C 10,1 C 8,0 km/h (2 Bft)
21.10.2020 02:20 20,9 C 10,8 C 56 % 1011,4 hPa 0,0 l/m 9,5 km/h (2 Bft) SO 135 0 min 2,4 C 8,8 C 27,5 km/h (4 Bft)
21.10.2020 02:10 21,0 C 10,8 C 56 % 1011,9 hPa 0,0 l/m 7,9 km/h (2 Bft) SO 135 0 min 2,4 C 9,8 C 24,6 km/h (4 Bft)
21.10.2020 02:00 21,0 C 10,8 C 57 % 1011,9 hPa 0,0 l/m 8,0 km/h (2 Bft) S-SO 157 0 min 2,6 C 9,7 C 10,0 km/h (2 Bft)
21.10.2020 01:50 21,0 C 10,7 C 57 % 1011,8 hPa 0,0 l/m 9,0 km/h (2 Bft) S-SO 157 0 min 2,5 C 9,0 C 11,4 km/h (2 Bft)
21.10.2020 01:40 21,0 C 10,7 C 57 % 1011,8 hPa 0,0 l/m 9,7 km/h (2 Bft) SO 135 0 min 2,5 C 8,5 C 24,0 km/h (4 Bft)
21.10.2020 01:30 21,0 C 10,7 C 57 % 1012,2 hPa 0,0 l/m 9,0 km/h (2 Bft) S-SO 157 0 min 2,5 C 9,0 C 9,5 km/h (2 Bft)
21.10.2020 01:20 21,0 C 10,6 C 58 % 1012,2 hPa 0,0 l/m 7,9 km/h (2 Bft) S-SO 157 0 min 2,7 C 9,5 C 12,6 km/h (3 Bft)
21.10.2020 01:10 21,1 C 10,6 C 58 % 1012,4 hPa 0,0 l/m 8,7 km/h (2 Bft) O-SO 112 0 min 2,7 C 9,0 C 15,3 km/h (3 Bft)
21.10.2020 01:00 21,1 C 10,6 C 58 % 1012,4 hPa 0,0 l/m 8,2 km/h (2 Bft) W-NW 292 0 min 2,7 C 9,4 C 19,6 km/h (3 Bft)
21.10.2020 00:50 21,1 C 10,5 C 59 % 1012,6 hPa 0,0 l/m 7,6 km/h (2 Bft) SO 135 0 min 2,8 C 9,6 C 17,1 km/h (3 Bft)
21.10.2020 00:40 21,2 C 10,5 C 59 % 1012,6 hPa 0,0 l/m 8,4 km/h (2 Bft) SO 135 0 min 2,8 C 9,1 C 11,9 km/h (2 Bft)
21.10.2020 00:30 21,2 C 10,3 C 59 % 1012,8 hPa 0,0 l/m 7,9 km/h (2 Bft) SO 135 0 min 2,6 C 9,2 C 16,7 km/h (3 Bft)
21.10.2020 00:20 21,2 C 10,2 C 60 % 1012,8 hPa 0,0 l/m 7,9 km/h (2 Bft) S 180 0 min 2,8 C 9,1 C 11,3 km/h (2 Bft)
21.10.2020 00:10 21,2 C 10,2 C 60 % 1012,9 hPa 0,0 l/m 7,9 km/h (2 Bft) S 180 0 min 2,8 C 9,1 C 10,9 km/h (2 Bft)
21.10.2020 00:00 21,2 C 10,1 C 61 % 1012,9 hPa 0,0 l/m 7,9 km/h (2 Bft) O-SO 112 0 min 2,9 C 9,0 C 18,3 km/h (3 Bft)
20.10.2020 23:50 21,2 C 10,2 C 61 % 1013,1 hPa 0,0 l/m 8,2 km/h (2 Bft) S-SO 157 0 min 3,0 C 8,9 C 6,9 km/h (2 Bft)
20.10.2020 23:40 21,3 C 10,3 C 61 % 1013,1 hPa 0,0 l/m 9,8 km/h (2 Bft) S-SO 157 0 min 3,1 C 8,0 C 8,2 km/h (2 Bft)
20.10.2020 23:30 21,2 C 10,3 C 61 % 1013,5 hPa 0,0 l/m 8,9 km/h (2 Bft) O-SO 112 0 min 3,1 C 8,6 C 17,1 km/h (3 Bft)
20.10.2020 23:20 21,2 C 10,4 C 61 % 1013,5 hPa 0,0 l/m 8,5 km/h (2 Bft) S-SO 157 0 min 3,2 C 8,9 C 4,3 km/h (1 Bft)
20.10.2020 23:10 21,4 C 10,5 C 61 % 1013,2 hPa 0,0 l/m 10,3 km/h (2 Bft) SO 135 0 min 3,3 C 8,0 C 11,9 km/h (2 Bft)
20.10.2020 23:00 21,4 C 10,4 C 61 % 1013,2 hPa 0,0 l/m 9,0 km/h (2 Bft) W-SW 247 0 min 3,2 C 8,6 C 8,9 km/h (2 Bft)
20.10.2020 22:50 21,4 C 10,5 C 61 % 1013,3 hPa 0,0 l/m 9,5 km/h (2 Bft) S-SW 202 0 min 3,3 C 8,4 C 10,8 km/h (2 Bft)
20.10.2020 22:40 21,4 C 10,5 C 61 % 1013,3 hPa 0,0 l/m 9,3 km/h (2 Bft) S-SW 202 0 min 3,3 C 8,6 C 8,9 km/h (2 Bft)
20.10.2020 22:30 21,4 C 10,6 C 61 % 1013,1 hPa 0,0 l/m 9,7 km/h (2 Bft) SO 135 0 min 3,4 C 8,4 C 21,9 km/h (4 Bft)
20.10.2020 22:20 21,5 C 10,6 C 61 % 1013,1 hPa 0,0 l/m 8,9 km/h (2 Bft) S 180 0 min 3,4 C 8,9 C 14,8 km/h (3 Bft)
20.10.2020 22:10 21,5 C 10,7 C 60 % 1013,1 hPa 0,0 l/m 10,0 km/h (2 Bft) SO 135 0 min 3,3 C 8,4 C 9,7 km/h (2 Bft)
20.10.2020 22:00 21,5 C 10,7 C 61 % 1013,1 hPa 0,0 l/m 8,5 km/h (2 Bft) S-SO 157 0 min 3,5 C 9,3 C 4,8 km/h (1 Bft)
_ Min-Zeit 06:00 06:30 13:40 18:00 - 08:10 - - - 05:00 11:20 10:00
Minimum _ 20,5 C 9,9 C 54 % 1008,1 hPa - 2,4 km/h (1 Bft) - - - 1,8 C 7,1 C 2,6 km/h (1 Bft)
_ Max-Zeit 22:00 14:50 22:00 23:20 22:00 20:00 - - 22:00 16:10 15:40 19:50
Maximum _ 21,5 C 13,0 C 61 % 1013,5 hPa 0,0 l/m 14,2 km/h
SO (3 Bft)
- - 0 min 4,3 C 12,7 C 37,5 km/h
SO (5 Bft)
Durchschnitt _ 20,9 C 11,1 C 57 % 1010,4 hPa #0,0 l/m 8,7 km/h (2 Bft) SO - #0 min. 3,0 C 9,5 C 12,0 km/h (2 Bft)

©39322 Markus Bahr